Track SOLRAD 3/INJUN 1 now! 10-day predictions SOLRAD 3/INJUN 1 is classified as:
1 00117U 61015B 21105.91237835 -.00000065 00000-0 87675-5 0 9999 2 00117 66.8112 287.0845 0077839 183.4016 176.6544 13.89864455 31635